OpenBCM V1.13 (Linux)

Packet Radio Mailbox

DB0FHN

[JN59NK Nuernberg]

 Login: GUEST





  
LU1HVK > KEP      15.09.19 08:34l 244 Lines 12026 Bytes #999 (0) @ WW
BID : 31812_LU1HVK
Read: DF7EAV DJ6UX GUEST
Subj: TLE 15 09
Path: DB0FHN<DB0BLO<DB0ERF<DB0RES<DB0OVN<DB0GOS<ON0AR<GB7CIP<N3HYM<IV3BVK<
      IK5FKA<LU9HGS<LU1HVK
Sent: 190915/0523Z 31812@LU1HVK.2594.CBA.ARG.SA LinBPQ6.0.18

                         _    _   _ _ _   ___     ___  __
                        | |  | | | / | | | \ \   / / |/ /
                        | |  | | | | | |_| |\ \ / /| ' /
                        | |__| |_| | |  _  | \ V / | . \
                        |_____\___/|_|_| |_|  \_/  |_|\_\

     BBS/NODO - CORDOBA (LEONES-FF87UH) - LU1HVK-4 NODO - LU1HVK-3 APRS

+----------------------------------------------------------------------------+
OSCAR 7
1  7530U 74089B   19257.88528860 -.00000046 +00000-0 -84672-5 0  9996
2  7530 101.7537 224.6725 0012019 175.2275 240.3203 12.53639802051336
OSCAR 11 (UoSAT 2)
1 14781U 84021B   19257.88077008 +.00000031 +00000-0 +98889-5 0  9999
2 14781 097.6073 278.4089 0009367 038.6356 321.5527 14.83105812890835
OSCAR 19 (LUSAT)
1 20442U 90005G   19257.79076022 -.00000000 +00000-0 +16175-4 0  9998
2 20442 098.6536 199.6659 0010645 248.3224 111.6826 14.32932623548936
EYESAT A
1 22825U 93061C   19257.51784477 -.00000011  00000-0  13866-4 0  9996
2 22825  98.9100 248.1858 0009474 101.6069 258.6176 14.30066238354506
ITAMSAT
1 22826U 93061D   19257.91874881 -.00000018 +00000-0 +10825-4 0  9999
2 22826 098.9040 248.5765 0010037 090.6331 269.6000 14.30400163354515
RADIO ROSTO
1 23439U 94085A   19257.85176511 -.00000050 +00000-0 -20803-3 0  9998
2 23439 064.8193 333.5601 0145518 096.1163 265.6362 11.27568200017836
JAS 2
1 24278U 96046B   19257.91360487 -.00000042 +00000-0 -61211-5 0  9994
2 24278 098.5507 039.3993 0350547 011.4658 349.4212 13.53092820139487
TECHSAT 1B
1 25397U 98043D   19257.89223789 -.00000017 +00000-0 +11605-4 0  9998
2 25397 098.6931 196.9869 0002133 115.5279 244.6121 14.23670376100203
ISS (ZARYA)
1 25544U 98067A   19258.06671334 -.00116119  00000-0 -20506-2 0  9991
2 25544  51.6392 275.4729 0007454  42.6216 349.5732 15.50051130189209
PCSAT
1 26931U 01043C   19257.87211400  .00000005  00000-0  33633-4 0  9993
2 26931  67.0508 136.1328 0007450 271.6140  88.4108 14.30552153937580
SAUDISAT 1C
1 27607U 02058C   19257.92449264 -.00000029 +00000-0 +16787-4 0  9996
2 27607 064.5546 139.8354 0077141 239.4436 119.9039 14.75570868899928
CUTE-1
1 27844U 03031E   19257.80650430 +.00000038 +00000-0 +36815-4 0  9990
2 27844 098.6852 264.7056 0010678 131.7022 228.5071 14.22194112840771
CUBESAT XI 4
1 27848U 03031J   19257.82376326 +.00000028 +00000-0 +32424-4 0  9996
2 27848 098.6928 265.2411 0010393 142.4312 217.7594 14.21787328840636
MOZHAYETS 4
1 27939U 03042A   19257.84313299  .00000119  00000-0  29820-4 0  9998
2 27939  98.0529  32.0021 0013593 143.9567 216.2566 14.66802101853462
CUBESAT XI 5
1 28895U 05043F   19257.90042106 +.00000088 +00000-0 +25727-4 0  9993
2 28895 097.9720 037.6702 0018099 074.9224 285.3980 14.63689905740151
CUTE-1.7+APD II
1 32785U 08021C   19257.82559133 +.00000141 +00000-0 +20842-4 0  9992
2 32785 097.5539 253.4013 0012425 337.4343 022.6327 14.88342810616727
DELFI C3
1 32789U 08021G   19257.92706911 +.00000672 +00000-0 +48735-4 0  9995
2 32789 097.4571 304.8998 0012399 175.8483 184.2850 15.07105804620158
SEEDS
1 32791U 08021J   19257.56118921 +.00000315 +00000-0 +37303-4 0  9999
2 32791 097.5305 259.2061 0012127 309.9788 050.0365 14.90866688617127
YUBELEINY
1 32953U 08025A   19257.69389734  .00000020  00000-0  75656-4 0  9995
2 32953  82.4984  90.0354 0018862 299.2560  60.6639 12.43091085513246
PRISM (HITOMI)
1 33493U 09002B   19257.77753297 -.00000051  00000-0  11491-5 0  9992
2 33493  98.1199 182.0714 0013881 251.5073 108.4639 14.96725481578321
KKS-1 (KISEKI)
1 33499U 09002H   19257.90400488 +.00000060 +00000-0 +16911-4 0  9994
2 33499 098.3447 099.4044 0007956 289.0825 070.9521 14.75461384571804
SWISSCUBE
1 35932U 09051B   19257.40509675 +.00000081 +00000-0 +29443-4 0  9992
2 35932 098.5966 065.9896 0006508 254.2584 105.7895 14.56308124529509
BEESAT
1 35933U 09051C   19257.47149438 +.00000072 +00000-0 +27246-4 0  9996
2 35933 098.5986 067.8542 0004660 269.6752 090.3911 14.56394396529587
ITUPSAT 1
1 35935U 09051E   19257.44237662  .00000046  00000-0  21707-4 0  9999
2 35935  98.6096  68.0554 0006971 266.9142  93.1257 14.55551002529401
XIWANG-1 (HOPE-1)
1 36122U 09072B   19257.74913432 -.00000033 +00000-0 +23263-4 0  9996
2 36122 100.0764 255.9991 0007860 139.7541 220.4156 13.16350954468460
TISAT 1
1 36799U 10035E   19257.92454514 +.00000346 +00000-0 +40922-4 0  9995
2 36799 098.1672 053.0641 0012906 151.5459 208.6466 14.91153058497713
JUGNU
1 37839U 11058B   19257.12732885  .00000305  00000-0  20600-4 0  9995
2 37839  19.9603 164.5536 0018971 210.5211 292.6605 14.12658256409630
SRMSAT
1 37841U 11058D   19257.30390574 +.00000290 +00000-0 +14382-4 0  9996
2 37841 019.9708 222.0732 0012082 079.6261 073.2565 14.10638578408981
M-CUBED/EXP-1 PRIME
1 37855U 11061F   19257.79121523 +.00000841 +00000-0 +49879-4 0  9995
2 37855 101.7113 198.6095 0173076 175.5484 184.7316 15.05574071429561
HORYU 2
1 38340U 12025D   19257.65239214 +.00000129 +00000-0 +26815-4 0  9992
2 38340 098.3221 298.8496 0011125 197.6708 162.4115 14.75747275383721
STRAND 1
1 39090U 13009E   19257.56622637  .00000015  00000-0  20277-4 0  9993
2 39090  98.4808 102.0201 0009856  33.8939 326.2874 14.35096396342994
SOMP
1 39134U 13015E   19257.90554632 +.00000585 +00000-0 +35947-4 0  9998
2 39134 064.8619 094.6101 0035675 289.3516 070.3755 15.20310339353620
BEESAT 3
1 39135U 13015F   19257.91881961 +.00000445 +00000-0 +31797-4 0  9992
2 39135 064.8680 114.1170 0032936 300.1245 059.6617 15.17592831353241
BEESAT 2
1 39136U 13015G   19257.92349133 +.00000582 +00000-0 +39143-4 0  9999
2 39136 064.8683 118.1758 0024660 304.2526 055.6264 15.17011757353161
CUBEBUG 1
1 39153U 13018D   19257.82279231  .00000136  00000-0  24650-4 0  9993
2 39153  97.9809 355.4636 0015544 273.0542  86.8892 14.80593185344858
ZACUBE
1 39417U 13066B   19257.93528804 +.00000143 +00000-0 +24200-4 0  9993
2 39417 097.5627 266.4787 0060465 104.3138 256.4799 14.81146187314105
TRITON 1
1 39427U 13066M   19257.93695640 +.00000133 +00000-0 +29398-4 0  9999
2 39427 097.6858 229.9062 0112396 242.6722 116.3007 14.67877167311093
GOMX 1
1 39430U 13066Q   19257.80203658  .00000189  00000-0  43531-4 0  9999
2 39430  97.7533 208.5852 0151030 336.9411  22.5060 14.59283307309450
HUMSAT D
1 39433U 13066T   19257.92661321 +.00000371 +00000-0 +41417-4 0  9994
2 39433 097.5460 301.7911 0030872 009.3658 350.8131 14.92246162315050
CUBEBUG 2
1 39440U 13066AA  19257.88874658 +.00000124 +00000-0 +24182-4 0  9992
2 39440 097.6072 251.1407 0080759 157.4404 203.0389 14.75883712311788
FUNCUBE 1
1 39444U 13066AE  19257.61690425 +.00000198 +00000-0 +30551-4 0  9993
2 39444 097.5602 268.2077 0059629 098.9997 261.7973 14.81971367312366
UWE-3
1 39446U 13066AG  19257.87725076 +.00000144 +00000-0 +25580-4 0  9991
2 39446 097.5841 258.2435 0071160 131.4395 229.2959 14.78418686311705
SPROUT
1 39770U 14029E   19257.82745332 +.00000506 +00000-0 +62011-4 0  9995
2 39770 097.8862 000.5664 0009013 149.1706 211.0014 14.87417501287936
UNISAT 6
1 40012U 14033C   19257.85741119 +.00000134 +00000-0 +27341-4 0  9997
2 40012 097.7452 120.6191 0058367 172.0016 188.2138 14.74005155281676
DUCHIFAT 1
1 40021U 14033M   19257.74766716 +.00000384 +00000-0 +44929-4 0  9993
2 40021 097.9227 182.6317 0014101 116.3298 243.9369 14.90678216284666
QB50P1
1 40025U 14033R   19257.73516258 +.00000219 +00000-0 +29297-4 0  9998
2 40025 097.9029 177.2688 0013512 125.6989 234.5487 14.88979406283912
CHUBUSAT 1
1 40300U 14070C   19257.82611095  .00000439  00000-0  22027-4 0  9998
2 40300  97.3222 329.7568 0020918 103.9915  31.9653 15.22164256269426
NUDT-PHONESAT
1 40900U 15049B   19257.82764066  .00001503  00000-0  66830-4 0  9991
2 40900  97.4372 266.3079 0011471 231.0440 253.7023 15.23025144221079
ZDPS 2A
1 40901U 15049C   19257.94843248 +.00000621 +00000-0 +34020-4 0  9991
2 40901 097.4609 262.5045 0011858 255.3443 162.2332 15.17825450220623
ZDPS 2B
1 40902U 15049D   19257.79804690  .00000982  00000-0  52039-4 0  9993
2 40902  97.4561 259.7828 0011913 253.1913 231.3353 15.17675989220573
XW-2A
1 40903U 15049E   19257.77916821  .00001207  00000-0  30208-4 0  9997
2 40903  97.3303 301.0142 0013224 179.6932 286.1500 15.42076039223829
KAITUO 1A
1 40904U 15049F   19257.82487447  .00000371  00000-0  23119-4 0  9995
2 40904  97.4695 258.3368 0013033 262.9094 219.0282 15.15426077220349
OBJECT G
1 40905U 15049G   19257.83538403  .00000004  00000-0  38143-5 0  9993
2 40905  97.4739 255.8081 0014192 257.0310 223.5321 15.14337487220211
XW-2C
1 40906U 15049H   19257.87279030  .00000627  00000-0  36333-4 0  9995
2 40906  97.4705 258.5037 0013134 253.1199 224.8249 15.15748135220358
XW-2D
1 40907U 15049J   19257.83977031  .00000277  00000-0  17899-4 0  9995
2 40907  97.4683 258.1525 0012625 249.9201 230.2804 15.15938989220360
LILACSAT 2
1 40908U 15049K   19257.84273242 -.00000005  00000-0  33395-5 0  9990
2 40908  97.4808 256.8912 0014426 257.1448 223.9022 15.13843416220145
XW-2F
1 40910U 15049M   19257.84975758  .00000626  00000-0  34654-4 0  9990
2 40910  97.4644 260.2892 0013291 240.9933 240.1038 15.17409732220387
XW-2B
1 40911U 15049N   19257.87623069  .00000649  00000-0  37332-4 0  9990
2 40911  97.4702 258.8508 0012510 250.5256 228.1220 15.15870264220264
KAITUO 1B
1 40912U 15049P   19257.87757039  .00000890  00000-0  44807-4 0  9999
2 40912  97.4508 264.0958 0013593 220.6705 257.3183 15.19736662220704
TIANWANG 1C (TW-1C)
1 40926U 15051B   19257.74099503  .00009670  00000-0  13399-3 0  9994
2 40926  97.1271 303.8454 0008914  53.2485  85.9475 15.57238673223851
TIANWANG 1B (TW-1B)
1 40927U 15051C   19257.85165255  .00008735  00000-0  12887-3 0  9997
2 40927  97.1305 303.1478 0009495  62.7981  54.9317 15.55558149223717
